Flag for Oman Weather past 2 weeks in Salalah, Oman

Now
79 °F

Passing clouds.


Feels Like: 82 °F
Forecast: 77 / 87 °F
Wind: 8 mph from South

Location: Salalah Airport

Current Time: Aug 31, 2014 at 12:56:49 AM

Latest Report: Aug 30, 2014 at 11:50 PM


Visibility: 5 mi

Pressure: 29.71 "Hg

Humidity: 89%

Dew point: 75 °F

Location of SalalahLocation

Historic Weather in Salalah — Graph

°F

Salalah temperature yesterday

Maximum temperature yesterday: 86 °F (at 2:50 PM)
Minimum temperature yesterday: 79 °F (at 12:50 AM)
Average temperature yesterday: 82 °F

Past Weeks' High & Low Weather Summary

 TemperatureHumidityPressure
High86 °F (Aug 30, 2:50 PM)94% (Aug 15, 10:50 PM)29.86 "Hg (Aug 15, 10:50 PM)
Low75 °F (Aug 16, 1:50 AM)62% (Aug 21, 12:50 PM)29.59 "Hg (Aug 23, 2:50 PM)
Average79 °F83%29.70 "Hg
* Reported Aug 15 10:50 PM — Aug 30 10:50 PM, Salalah, Weather by CustomWeather, © 2014

Note: Actual official high and low records may vary slightly from our data, if they occured in-between our weather recording intervals... More about our weather records

Advertising

Salalah weather history for previous 24 hours

 ConditionsComfort  
Time TempWeatherWind HumidityBarometerVisibility
10:50 PM
Aug 30
81 °FPassing clouds.8 mph79%29.71 "Hg6 mi
9:50 PM81 °FPassing clouds.6 mph84%29.71 "HgN/A
8:50 PM81 °FPassing clouds.7 mph79%29.68 "Hg5 mi
7:50 PM81 °FPassing clouds.8 mph84%29.65 "HgN/A
6:50 PM81 °FPassing clouds.8 mph79%29.65 "HgN/A
5:50 PM82 °FScattered clouds.8 mph74%29.62 "HgN/A
4:50 PM84 °FWarm.9 mph66%29.62 "HgN/A
3:50 PM84 °FScattered clouds.12 mph66%29.62 "HgN/A
2:50 PM86 °FWarm.12 mph62%29.65 "HgN/A
1:50 PM84 °FScattered clouds.12 mph66%29.68 "HgN/A
12:50 PM84 °FScattered clouds.12 mph70%29.68 "HgN/A
11:50 AM84 °FScattered clouds.12 mph66%29.71 "HgN/A
10:50 AM84 °FWarm.13 mph66%29.71 "HgN/A
9:50 AM84 °FScattered clouds.9 mph66%29.74 "HgN/A
8:50 AM82 °FScattered clouds.8 mph70%29.74 "HgN/A
7:50 AM81 °FScattered clouds.8 mph79%29.71 "HgN/A
6:50 AM79 °FScattered clouds.9 mph84%29.71 "HgN/A
5:50 AM79 °FWarm.8 mph84%29.68 "HgN/A
4:50 AM79 °FWarm.8 mph84%29.68 "Hg6 mi
3:50 AM79 °FPassing clouds.8 mph84%29.68 "Hg5 mi
2:50 AM79 °FPartly cloudy.7 mph89%29.68 "Hg4 mi
1:50 AM79 °FWarm.7 mph89%29.68 "Hg5 mi
12:50 AM79 °FWarm.8 mph89%29.68 "Hg4 mi
Weather by CustomWeather, © 2014

See weather overviewHow to use our weather pages